Wind_Speed
42 42 41 39 38 37 37 36 37 37 38 39 40 41 43 44 45 46 47 48 49 49 50 50 50 50 50 50 50 51 51 51 51 51 51 51 51 50 50 50 49 49 48 47 47 46 45 44 44 43 42 42 42 41 41 41 41 40 40 40 40 40 40 40 41 41 41 41 41 41 41 41 41 40 40 40 40 40 40 40 40 40 40 40 40 40
41 40 39 38 37 37 37 37 37 38 39 40 41 42 43 44 45 46 47 48 49 49 50 50 50 50 50 50 50 50 50 50 50 50 49 49 49 48 48 48 47 46 46 45 44 43 43 42 41 41 40 40 40 40 40 40 40 40 40 40 40 40 41 41 41 41 41 41 41 41 41 41 41 41 41 41 40 40 40 40 40 40 40 40 40 40
39 39 38 38 38 38 38 38 38 39 40 41 42 43 44 45 46 47 47 48 49 49 49 49 49 49 49 49 49 49 49 49 48 48 48 47 47 47 46 45 45 44 43 42 42 41 40 40 39 39 39 39 39 39 40 40 40 41 41 41 41 41 41 42 42 42 42 42 42 42 42 42 42 41 41 41 41 41 41 40 40 40 40 40 40 40
37 37 38 38 38 38 38 39 39 40 41 42 43 45 45 46 47 47 48 48 49 49 49 49 49 49 49 49 48 48 48 47 47 47 46 46 45 44 44 43 42 41 41 40 39 39 38 38 38 38 38 39 39 39 40 40 40 41 41 42 42 42 43 43 43 43 43 43 43 43 43 43 43 43 43 42 42 42 41 41 41 41 41 40 40 40
37 37 38 38 39 39 39 40 40 41 42 43 44 45 46 47 47 48 48 49 49 48 48 48 48 48 48 48 47 47 46 46 45 45 44 43 43 42 41 41 40 39 39 38 38 37 37 37 37 38 38 38 39 39 40 40 41 41 42 42 43 43 44 44 44 44 44 45 45 45 45 45 44 44 44 44 43 43 42 42 42 41 41 41 40 40
37 38 38 39 39 40 40 41 41 42 43 44 45 46 47 47 48 48 48 48 48 48 48 48 47 47 47 46 46 45 44 44 43 42 42 41 40 40 39 38 38 37 37 36 36 36 36 36 37 37 38 38 39 40 40 41 41 42 42 43 43 44 44 45 45 45 45 46 46 46 46 46 45 45 45 45 44 44 43 43 42 42 42 41 41 40
38 38 39 40 40 41 41 41 42 43 44 45 46 47 47 48 48 48 48 48 48 48 47 47 46 46 45 44 43 43 42 41 41 40 39 39 38 38 37 37 36 36 35 35 35 35 36 36 37 37 38 38 39 40 40 41 41 42 42 43 44 44 45 45 45 46 46 46 46 46 46 46 46 46 46 45 45 45 44 44 43 43 42 41 41 40
39 39 40 41 41 42 42 42 43 44 45 46 47 47 48 48 48 48 48 48 48 47 47 46 45 44 43 42 41 40 40 39 38 38 37 37 36 36 35 35 35 34 34 34 35 35 35 36 36 37 38 38 39 39 40 41 41 42 42 43 43 44 45 45 45 46 46 46 46 46 46 46 46 46 46 45 45 45 44 44 43 43 42 41 41 40
40 41 41 41 42 42 43 43 44 45 46 47 47 48 48 49 49 49 48 48 47 46 45 45 43 42 40 39 38 37 37 37 36 35 35 35 34 34 34 34 33 33 34 34 34 34 35 35 36 37 37 38 38 39 40 40 41 41 42 42 43 44 44 45 45 45 46 46 46 46 46 46 46 45 45 45 45 44 44 44 43 43 42 41 40 39
41 41 42 42 42 43 43 44 45 45 46 47 48 48 49 49 49 49 48 47 46 45 45 44 42 40 38 36 35 34 35 35 34 34 33 33 33 33 33 32 33 33 33 33 34 34 34 35 36 36 37 37 38 38 39 39 40 41 41 42 43 43 44 44 44 45 45 45 45 45 45 45 45 45 44 44 44 44 43 43 43 42 41 41 40 39
42 42 43 43 44 44 44 45 45 46 46 47 48 48 49 48 48 48 47 46 45 45 44 42 41 38 36 34 33 32 32 32 32 32 32 32 32 32 32 32 32 32 33 33 33 33 34 34 35 35 36 36 37 38 38 39 39 40 41 41 42 42 43 43 43 43 43 43 43 44 44 43 43 43 43 43 43 43 42 42 42 42 41 40 39 38
42 43 44 44 44 45 45 45 46 46 47 47 47 48 48 48 48 47 46 46 45 44 43 41 39 37 34 33 32 31 31 30 30 30 30 30 30 30 31 31 31 32 32 32 32 32 33 33 34 35 35 35 36 37 37 38 39 39 40 41 41 42 42 42 42 42 42 42 42 42 42 42 41 41 41 41 41 41 41 41 41 41 40 40 39 38
43 44 44 45 45 45 45 46 46 47 47 47 47 47 48 48 47 46 46 46 45 44 42 41 38 36 33 31 30 30 30 30 29 29 29 28 29 29 29 30 30 30 31 31 31 31 31 32 33 34 34 34 35 36 36 37 38 39 39 40 41 41 41 41 41 41 41 41 41 40 40 40 40 40 40 40 40 40 40 40 40 40 40 40 39 38
44 45 45 45 45 46 46 46 46 46 47 47 47 47 47 47 46 46 45 45 44 43 42 40 38 35 32 30 29 29 29 29 29 28 28 27 27 27 28 29 30 30 29 30 31 31 31 31 32 33 33 33 34 35 36 37 37 38 39 39 40 40 40 40 40 40 40 39 39 39 39 39 39 39 39 39 39 39 39 40 40 40 40 40 39 39
45 45 45 46 46 46 46 46 46 46 46 47 47 47 46 46 45 44 44 43 43 42 41 39 37 35 31 29 27 28 28 29 29 28 27 26 26 26 27 28 29 29 29 29 30 31 31 31 32 33 33 33 33 34 35 36 36 37 38 38 38 39 39 39 39 39 38 38 38 38 38 38 38 38 38 38 39 39 39 39 40 40 40 40 40 39
45 45 46 46 46 46 46 45 45 46 46 46 46 45 45 44 44 44 43 43 42 42 40 38 36 34 31 28 26 26 27 29 29 28 27 26 26 25 26 28 29 30 29 29 30 31 32 32 32 32 32 32 32 33 33 34 35 36 36 37 37 38 38 38 38 38 37 37 37 37 37 37 38 38 38 38 39 39 39 40 40 40 40 40 40 40
46 46 46 45 45 45 45 45 45 45 45 45 45 44 44 43 43 43 42 42 41 40 39 37 35 33 31 28 26 25 25 28 29 29 28 27 26 26 26 28 30 30 30 30 30 31 32 32 32 31 31 31 31 31 32 33 34 34 35 36 36 37 37 37 37 37 37 37 37 37 37 37 38 38 38 39 39 39 39 40 40 40 40 40 40 40
46 45 45 45 45 45 45 44 44 44 44 44 44 43 43 42 42 42 41 41 39 38 37 36 34 32 30 28 27 25 25 26 28 29 28 28 27 27 27 29 30 31 31 30 30 31 31 31 31 30 30 30 30 30 31 32 32 33 34 35 35 36 36 36 36 36 36 36 36 37 37 37 38 38 39 39 39 39 40 40 40 40 40 40 40 40
46 45 45 44 44 44 44 43 43 43 43 43 43 42 42 42 41 41 40 39 38 36 35 34 33 31 29 27 26 26 25 26 28 29 29 29 28 28 29 30 31 31 31 30 30 30 31 30 30 30 29 30 30 30 31 31 32 32 33 34 34 35 35 36 36 36 36 36 37 37 37 38 38 38 39 39 40 40 40 40 40 40 40 40 40 40
45 44 44 43 43 43 43 43 42 42 42 42 42 41 41 41 40 39 38 37 36 34 33 32 31 30 28 26 25 25 26 26 28 30 30 30 30 29 30 31 31 31 31 30 30 30 30 30 29 29 29 29 30 30 31 31 31 32 32 33 34 34 35 35 36 36 36 36 37 37 37 38 38 39 39 40 40 40 40 41 41 41 41 41 41 41
44 43 43 42 42 42 42 42 42 41 41 41 41 40 40 39 39 38 36 35 34 33 32 31 29 28 26 25 25 25 26 27 29 31 32 32 31 30 30 31 32 32 31 30 29 29 29 29 29 29 29 29 29 30 30 31 31 31 32 32 33 34 34 35 35 36 36 36 37 37 37 38 38 39 40 40 41 41 41 41 41 41 41 41 41 41
43 42 42 42 41 41 41 41 41 40 40 39 39 39 39 38 37 36 35 33 32 31 30 29 28 27 25 25 25 26 27 28 30 32 34 34 33 31 31 31 32 32 31 30 30 29 29 29 28 28 28 28 28 29 29 30 30 30 31 31 32 33 33 34 35 35 36 36 37 37 37 38 38 39 40 40 41 41 42 42 42 42 42 42 42 42
42 41 41 41 41 41 41 40 40 39 39 38 37 37 37 36 35 34 33 31 30 30 29 28 27 25 24 24 25 26 27 28 30 33 34 35 34 32 31 31 32 32 31 31 30 30 29 28 27 27 26 26 26 27 27 28 28 28 29 29 30 31 32 33 34 35 36 36 36 37 37 38 38 39 40 40 41 41 42 42 42 42 43 43 43 43
41 41 41 40 40 40 40 39 39 38 37 37 36 35 35 34 33 32 31 30 29 29 28 27 26 25 25 25 25 26 27 28 30 33 34 35 34 33 32 31 32 32 32 31 31 31 30 28 26 25 25 24 24 25 25 26 26 26 27 28 28 30 31 32 33 34 35 36 36 37 37 38 39 39 40 40 41 42 42 43 43 43 43 43 43 43
40 40 40 40 39 39 38 38 37 36 36 35 34 33 32 31 31 30 29 28 28 28 27 27 26 26 25 25 25 25 26 27 30 32 34 35 34 32 31 31 32 33 33 32 31 31 29 27 26 24 23 23 22 22 22 23 23 24 25 25 26 28 29 30 31 33 34 35 36 37 37 38 39 40 40 41 41 42 43 43 43 44 44 44 44 44
39 39 39 39 38 38 37 36 35 34 33 32 31 31 30 29 29 28 27 27 27 27 27 27 27 26 26 25 25 25 25 27 29 32 33 34 33 32 31 32 33 33 33 32 31 30 29 27 25 24 23 22 20 19 19 20 20 21 22 23 24 25 26 28 29 30 32 33 34 36 37 38 39 40 40 41 42 43 43 44 44 44 44 45 45 45
38 38 38 37 37 36 35 34 33 32 31 30 29 28 28 28 27 27 26 25 25 26 26 26 26 26 26 25 25 25 25 27 29 31 33 33 33 32 32 32 33 34 34 33 32 30 29 27 26 24 22 21 19 17 17 17 18 19 20 21 22 23 24 25 26 27 29 30 32 33 35 36 37 39 40 40 41 42 43 44 44 45 45 46 46 46
37 37 36 35 35 34 33 31 30 29 28 27 27 26 26 26 26 26 26 25 25 25 25 26 26 26 26 26 25 25 25 26 28 31 33 33 33 32 32 33 34 34 35 34 32 30 28 27 26 24 23 21 19 18 17 17 17 18 18 19 20 21 22 23 24 26 27 28 30 31 32 34 35 36 37 39 40 41 42 42 43 44 45 46 46 47
36 35 34 33 32 31 30 29 27 26 25 25 25 25 25 26 26 26 25 25 25 25 25 26 26 27 27 27 26 25 24 26 28 31 32 32 32 33 33 33 34 35 36 35 33 30 28 27 26 25 24 22 20 19 18 17 17 17 17 17 18 19 20 21 23 24 26 27 28 30 31 32 33 34 35 36 37 38 39 40 41 42 43 44 45 46
33 33 32 31 30 28 27 26 25 24 23 23 24 24 25 25 25 25 25 25 25 25 25 25 26 27 27 27 27 25 24 25 28 31 32 32 33 33 33 34 34 35 36 36 35 32 28 26 26 26 25 24 22 21 20 19 18 18 17 17 16 17 18 20 21 23 24 26 27 29 30 31 32 32 33 34 35 36 36 37 38 40 41 42 43 43
30 29 29 28 27 25 24 23 23 22 22 23 23 24 24 24 24 24 24 24 24 25 25 25 26 27 27 28 27 26 24 25 28 30 32 32 33 33 34 34 34 35 36 37 37 35 32 28 26 25 25 25 23 22 22 21 20 20 19 18 18 18 18 20 21 22 23 25 26 27 28 30 31 31 32 33 34 34 35 35 36 37 38 39 40 40
26 25 25 24 23 22 22 21 21 21 22 22 22 23 23 23 23 23 23 24 24 25 25 26 26 27 27 27 27 26 25 25 27 30 32 32 33 34 34 34 34 35 35 36 37 37 36 33 29 26 25 25 24 23 23 23 23 22 21 21 20 20 20 21 22 23 23 24 25 26 27 28 29 30 31 32 33 33 34 34 35 36 37 37 38 38
23 22 21 20 20 20 20 20 20 21 21 21 21 21 22 22 22 23 23 23 24 24 25 25 26 26 27 27 26 26 25 26 27 29 31 32 33 34 34 35 35 35 35 36 36 37 37 36 33 30 27 25 25 25 25 25 24 24 24 23 23 23 22 23 23 24 24 24 25 26 26 27 28 29 30 31 31 32 33 33 34 35 36 36 37 37
19 18 18 17 18 18 18 19 19 20 20 20 20 20 21 21 22 22 23 23 24 24 25 25 26 26 26 26 26 25 25 25 27 29 31 32 34 34 35 35 35 36 36 36 36 37 37 37 36 34 31 28 26 26 27 27 26 26 26 26 26 25 25 25 25 26 25 26 26 26 27 27 28 28 29 30 30 31 32 33 33 34 35 36 36 36
16 16 16 16 16 17 17 18 18 19 19 19 20 20 20 21 21 22 22 23 24 24 25 26 26 26 26 26 26 25 25 25 26 28 30 32 33 34 35 35 35 36 37 37 37 37 38 37 37 36 34 32 29 28 28 28 28 28 27 27 27 28 27 27 28 28 27 27 27 27 27 28 28 28 29 29 30 30 31 32 32 33 34 35 36 36
14 14 15 15 16 16 16 17 17 18 18 19 19 20 20 21 21 21 22 23 23 24 25 26 26 26 26 26 26 26 25 25 26 27 29 31 32 34 34 35 35 35 36 37 38 38 39 38 38 37 36 35 33 31 29 29 29 29 29 29 29 29 29 29 30 30 30 29 29 29 29 29 29 29 29 30 30 30 31 31 32 32 33 34 35 35
13 14 14 15 15 15 16 16 17 17 18 18 19 19 20 20 21 21 22 23 24 24 25 25 26 26 26 26 26 26 26 26 26 27 28 30 32 33 34 34 34 35 36 37 38 39 39 39 39 38 38 37 36 34 32 31 30 30 30 29 29 29 30 30 31 31 31 31 31 30 30 30 30 30 30 30 31 31 31 31 31 31 32 33 33 34
13 13 14 14 14 15 15 16 16 17 18 18 19 19 19 20 20 21 22 23 23 24 24 25 25 25 26 26 27 27 27 27 27 27 28 29 31 32 33 34 34 34 35 36 37 38 39 40 40 40 39 38 37 36 35 33 32 32 31 30 29 30 30 31 32 32 33 33 32 32 32 32 32 32 32 32 31 31 31 31 31 31 31 32 32 33
13 13 13 14 14 15 15 16 16 17 17 18 18 19 19 20 21 21 22 23 24 24 24 24 25 25 25 26 26 27 27 27 27 27 28 29 30 32 33 33 33 34 34 35 36 37 38 39 40 40 40 40 39 37 35 34 34 33 33 31 30 30 30 31 32 33 33 34 34 33 33 33 33 33 33 32 32 32 31 30 30 30 30 31 31 31
12 13 13 13 14 15 15 16 16 17 17 18 18 19 20 20 21 21 22 23 24 24 25 25 25 25 25 26 27 27 27 28 28 28 28 29 30 31 32 33 33 34 34 35 35 36 37 38 39 40 40 40 40 39 37 35 34 34 34 34 32 31 30 30 31 32 33 34 34 34 34 33 33 33 33 33 32 31 31 30 30 29 29 30 30 30
12 12 13 14 14 15 15 16 16 17 17 18 19 19 20 21 21 22 22 23 24 24 25 25 25 26 26 26 27 27 28 28 28 28 28 29 29 30 31 32 33 34 34 35 35 36 37 38 39 39 40 40 40 39 38 36 35 34 35 35 34 33 32 31 31 32 33 33 33 34 34 33 33 33 33 32 32 31 30 30 29 29 28 28 29 29
12 12 13 14 14 15 15 16 16 17 18 19 19 20 21 21 22 22 23 23 24 24 25 25 26 26 26 26 26 27 28 28 28 28 28 28 29 29 30 31 32 33 34 35 36 36 37 38 38 39 39 39 40 39 38 37 35 34 34 35 35 35 33 32 31 32 32 33 33 33 33 33 33 32 32 32 31 30 30 29 28 28 27 27 28 28
12 12 13 14 14 15 15 16 17 18 18 19 20 21 21 22 22 23 23 23 24 24 25 25 26 26 26 26 26 26 27 27 27 27 27 27 28 29 29 30 32 33 34 35 36 37 37 37 38 38 38 39 39 39 38 37 36 34 34 34 35 35 35 34 32 32 32 32 32 32 32 32 32 32 31 31 30 29 28 28 27 27 26 26 26 27
12 12 13 13 14 15 16 16 17 18 19 20 20 21 22 22 22 23 23 24 24 24 25 25 25 25 25 25 25 25 25 25 25 26 26 27 27 28 29 30 31 32 34 35 36 37 37 37 37 37 38 38 38 38 38 37 36 35 34 34 34 35 35 35 34 33 32 32 32 31 31 32 32 31 30 30 29 28 27 27 26 25 24 24 24 25
12 12 13 14 15 15 16 17 17 18 19 19 20 21 21 22 22 23 23 23 24 24 24 24 25 25 24 24 24 24 23 23 23 24 25 26 26 27 28 30 31 32 34 35 36 37 37 37 37 37 37 37 37 37 37 37 36 35 34 34 34 34 34 34 34 34 33 32 32 31 31 31 31 31 30 29 28 27 26 26 25 23 23 22 22 22
12 12 13 14 15 16 17 17 17 18 18 19 19 20 21 22 22 23 23 23 23 23 24 24 24 24 24 24 24 23 23 22 22 22 23 24 26 27 28 30 31 32 34 35 36 36 37 37 37 37 37 36 36 35 35 36 36 36 35 34 34 34 34 33 33 33 33 33 32 31 31 31 31 30 29 28 27 26 25 24 23 23 22 21 21 20
12 13 14 15 16 16 17 17 17 17 17 18 19 20 21 21 22 22 22 23 23 23 23 24 24 24 24 25 25 24 24 24 23 23 23 24 25 27 28 29 31 32 33 34 35 36 36 36 36 35 36 36 36 35 34 34 35 35 35 35 34 34 34 33 33 32 32 32 32 32 31 31 30 30 29 27 26 25 24 23 22 22 21 20 20 19
14 14 15 15 16 16 16 16 16 16 16 17 18 19 20 21 21 22 22 22 23 23 24 24 24 25 25 25 26 26 26 25 25 25 25 25 26 27 28 29 31 32 33 34 35 35 35 34 34 34 34 34 35 35 34 34 34 34 35 35 35 34 34 33 33 32 32 32 32 31 31 31 30 30 29 27 26 24 23 22 21 21 20 19 19 18
14 15 15 15 16 16 16 16 16 16 16 16 17 18 19 20 21 21 22 22 23 24 24 25 25 26 26 26 26 27 27 27 27 27 27 27 28 28 29 30 31 32 33 33 34 34 34 33 32 31 31 32 33 34 34 33 33 34 34 34 35 35 34 34 33 33 32 32 31 31 30 30 30 29 28 28 26 24 23 21 20 20 19 18 18 17
15 15 15 16 16 16 16 16 16 16 16 17 17 18 19 20 21 22 23 23 24 25 25 26 26 27 27 27 27 28 28 28 28 28 28 29 29 30 31 31 32 33 34 34 34 34 33 32 30 29 29 30 32 33 34 34 34 34 34 34 35 35 35 34 34 33 32 32 31 30 30 29 29 28 28 28 26 25 23 21 20 19 18 18 18 17
15 16 16 16 16 16 16 16 16 17 17 17 18 18 19 20 21 22 23 24 25 26 26 27 27 28 28 28 29 29 29 29 29 30 30 30 31 32 32 33 34 35 35 36 36 35 34 33 31 28 27 28 30 32 34 34 35 35 35 34 34 34 35 34 34 33 32 31 30 29 29 28 28 27 27 27 26 25 23 21 19 18 18 18 18 17
Wind_Direction
285 285 285 286 286 287 287 288 289 290 290 291 291 292 292 293 293 294 294 294 294 295 295 296 296 296 297 297 297 298 298 298 298 298 298 297 297 296 296 296 295 295 295 294 294 294 294 294 294 293 293 293 293 292 292 292 292 292 292 292 291 291 291 290 290 290 289 289 288 288 287 287 286 285 285 284 284 283 283 282 281 280 279 278 277 276
286 286 287 287 287 288 289 290 290 291 291 292 292 292 292 293 293 294 294 295 295 295 296 296 297 297 297 297 298 298 298 298 298 298 297 297 297 296 295 295 295 295 294 294 294 294 294 294 293 293 293 293 292 292 292 292 292 292 292 292 292 291 291 290 290 290 289 289 288 288 287 286 286 285 285 284 284 283 283 282 281 281 280 279 278 277
287 287 288 288 289 290 291 291 292 292 292 293 293 293 293 293 294 294 294 295 295 296 296 297 297 297 298 298 298 298 298 298 298 298 297 297 296 296 295 295 294 294 294 294 294 294 294 293 293 293 292 292 292 292 292 292 292 292 292 292 292 291 291 291 290 290 289 289 288 288 287 287 286 286 286 285 285 284 284 283 282 281 281 280 279 278
288 289 289 290 291 291 292 293 293 293 293 294 294 294 294 294 294 295 295 295 296 296 297 297 297 298 298 298 298 298 298 298 298 297 297 296 296 295 295 294 294 294 294 294 293 293 293 292 292 292 292 292 292 292 292 292 292 292 293 293 292 292 292 292 292 291 291 290 290 290 289 289 288 288 287 287 286 286 285 284 284 283 282 281 280 279
289 290 290 291 292 292 293 293 294 294 294 294 294 294 295 295 295 295 295 296 296 297 297 298 298 298 299 299 299 299 299 298 298 297 296 296 295 295 294 294 293 293 293 293 292 292 292 291 291 291 291 291 291 292 292 292 293 293 293 293 294 293 293 293 293 293 292 292 292 291 291 291 290 290 289 289 289 288 287 286 285 284 283 282 281 280
291 291 292 292 293 293 294 294 295 295 295 295 295 295 295 295 296 296 296 297 297 297 298 298 299 299 299 299 299 299 299 298 297 296 296 295 294 294 293 293 292 292 292 291 291 291 291 291 290 291 291 291 291 292 292 293 293 294 294 294 294 295 294 294 294 294 293 293 293 292 292 292 291 291 291 290 290 289 288 288 286 285 284 283 282 281
292 292 293 293 293 294 294 295 295 296 296 295 295 295 295 296 296 296 297 297 297 298 298 299 299 299 300 299 299 299 298 297 296 295 294 294 293 292 292 292 291 291 291 290 290 290 290 290 290 290 291 291 292 292 293 293 294 294 295 295 295 295 295 295 294 294 293 293 293 292 292 292 291 291 291 290 290 290 289 288 287 286 284 283 282 281
293 293 293 293 294 294 295 296 296 296 296 296 296 296 296 296 296 296 297 297 298 298 299 299 299 299 299 299 298 297 296 295 294 293 292 292 291 291 290 290 290 290 290 289 289 289 289 289 290 290 291 291 292 292 293 294 294 294 295 295 295 294 294 294 293 293 293 292 292 292 292 291 291 291 291 290 290 289 288 287 286 285 284 283 282 280
293 292 293 293 294 295 296 297 297 297 297 297 297 297 296 296 296 296 297 297 298 298 299 299 299 299 298 298 297 296 295 294 292 291 291 290 289 289 289 288 288 288 288 288 288 288 289 289 289 290 290 291 292 292 293 293 294 294 294 294 293 293 293 292 292 292 292 292 292 291 291 291 291 291 290 290 289 288 287 286 285 284 283 282 281 280
292 293 294 295 295 296 297 298 298 297 297 297 297 297 297 296 296 296 297 297 298 298 298 298 298 298 298 297 295 294 293 292 291 290 289 289 288 288 287 287 287 287 287 287 288 288 288 288 289 289 290 290 291 292 292 292 293 293 293 292 292 292 291 291 291 291 291 291 291 291 291 291 290 290 289 289 288 287 286 285 284 283 282 281 280 278
293 294 295 296 297 297 298 298 298 298 297 297 297 296 296 296 296 297 297 297 297 298 298 298 298 298 297 296 295 293 291 290 289 289 288 288 288 287 287 287 287 287 287 287 287 287 288 288 288 289 289 290 290 291 291 291 291 291 291 291 290 290 290 290 290 290 290 290 290 290 290 289 289 289 288 287 286 285 284 284 283 282 281 280 279 278
295 295 296 296 297 298 298 298 297 297 297 296 296 296 296 296 296 297 297 297 298 297 298 298 298 298 297 296 295 292 290 289 288 287 287 287 287 287 287 287 286 286 286 286 286 286 286 287 287 288 288 289 290 290 290 290 290 290 290 289 289 289 288 288 288 289 289 289 289 289 288 288 288 287 286 286 285 284 283 282 281 281 280 279 278 277
295 296 296 297 297 298 298 298 297 297 296 296 296 296 296 296 297 297 298 298 298 298 298 298 299 299 298 297 295 293 291 289 287 286 286 286 285 285 285 285 284 284 284 284 284 285 285 286 287 287 288 289 289 290 290 290 290 289 289 288 288 288 288 288 288 288 288 288 288 287 287 287 286 285 285 284 283 282 281 281 280 280 279 278 278 277
296 296 296 297 297 297 297 297 297 296 296 296 296 296 296 297 297 297 298 298 298 298 299 299 299 299 299 298 296 293 291 289 287 286 285 284 284 283 283 283 283 283 283 284 285 285 286 287 288 288 289 289 290 290 290 289 289 288 288 287 287 287 287 287 287 287 287 287 286 286 286 285 285 284 283 282 281 281 280 280 279 279 278 278 278 277
296 296 296 297 297 297 297 297 297 296 296 296 296 296 297 297 297 298 298 298 298 299 300 300 300 300 299 298 297 294 292 289 287 285 284 283 283 283 283 283 284 284 285 287 288 289 289 290 290 290 291 291 291 291 290 290 289 288 288 288 287 287 287 287 287 286 286 286 286 285 285 284 283 283 282 281 280 280 279 279 278 278 278 278 278 278
295 296 297 297 297 297 297 297 297 297 296 297 297 297 297 297 298 298 298 298 299 299 300 300 300 299 298 298 297 295 292 289 287 285 284 284 285 286 286 286 287 288 290 291 292 293 293 293 293 294 294 294 294 293 292 291 290 290 289 288 288 288 287 287 287 286 286 286 285 284 284 283 282 282 281 280 280 279 279 279 278 278 278 278 278 278
296 296 297 298 298 298 297 297 297 297 297 297 297 297 297 297 298 298 299 299 299 300 300 300 299 299 298 298 297 296 293 290 288 287 286 286 289 291 292 292 292 293 295 297 297 297 297 297 297 297 298 297 297 296 294 293 292 291 290 289 289 288 288 287 287 286 286 285 285 284 283 283 282 282 281 281 280 280 279 279 279 279 279 279 279 279
297 297 298 298 298 298 297 298 297 297 297 297 297 297 298 298 298 299 299 299 300 300 300 300 300 299 298 298 298 298 296 292 290 289 289 290 293 296 298 298 297 298 300 301 301 300 300 300 301 301 302 301 300 298 296 295 293 292 290 289 289 288 288 287 287 287 286 285 285 284 283 283 282 282 282 281 281 281 280 280 280 280 280 280 280 280
298 299 299 299 298 298 298 298 297 297 297 297 297 298 298 298 298 299 299 299 300 300 300 300 299 299 298 298 298 300 299 296 293 293 294 295 298 301 303 302 302 302 303 304 304 303 303 303 304 305 305 304 303 300 298 295 293 291 289 288 287 286 286 286 286 286 285 285 284 284 283 283 282 282 282 282 281 281 281 281 281 281 281 281 281 281
299 299 299 299 298 298 298 298 298 297 297 297 298 298 298 298 298 298 298 299 299 299 299 299 298 298 298 298 299 301 302 300 298 297 298 299 302 305 306 305 305 305 305 306 305 305 305 306 307 308 308 306 304 301 298 295 292 289 287 285 284 283 283 283 283 283 283 283 283 283 282 282 282 282 282 281 281 281 281 281 281 281 281 281 281 281
300 300 299 299 298 298 298 298 298 298 298 298 298 298 298 298 298 298 298 299 299 299 298 298 297 298 300 301 303 306 308 307 305 303 302 303 304 306 307 307 306 306 306 307 307 307 307 309 310 310 309 308 305 302 298 295 292 289 286 284 282 281 280 280 280 280 280 280 280 280 281 281 280 280 280 280 280 280 280 280 280 280 280 280 280 280
300 300 299 299 298 298 298 298 298 298 298 298 298 297 297 297 297 297 297 298 298 298 298 298 299 300 303 306 309 312 313 312 309 306 305 304 305 307 308 308 308 307 307 308 309 309 310 311 312 312 312 309 307 303 300 296 293 289 286 283 281 279 278 277 277 277 277 277 277 277 278 278 278 278 278 278 279 279 279 279 279 279 279 279 278 278
300 299 299 299 298 298 298 298 298 298 297 297 297 296 296 296 296 297 297 298 299 298 298 299 300 303 308 312 314 315 315 313 310 307 305 305 306 308 310 310 309 308 309 310 311 311 312 313 315 315 315 313 310 307 303 299 295 291 288 285 282 279 277 276 275 275 274 274 274 275 275 275 275 276 276 276 277 277 277 277 277 277 277 277 277 277
299 299 299 298 298 298 298 298 297 297 297 296 296 296 296 296 297 297 299 300 300 300 300 302 304 309 314 316 316 316 315 312 309 307 305 305 306 309 311 312 311 310 311 312 313 313 314 316 318 320 319 318 315 312 307 303 299 295 291 287 284 281 278 276 275 274 273 273 273 272 273 273 273 273 274 274 274 275 275 275 275 275 275 275 275 275
298 298 298 298 298 297 297 297 297 296 296 296 296 295 296 296 297 299 300 302 303 304 305 307 310 314 315 315 315 314 313 311 309 306 305 305 307 310 313 313 312 311 312 313 314 315 316 319 322 324 324 323 320 317 312 307 303 299 295 291 287 284 281 279 277 275 274 273 272 272 272 271 271 272 272 272 273 273 273 274 274 274 274 274 273 273
298 298 298 297 297 297 297 297 297 296 295 295 295 295 295 297 298 300 302 305 306 307 308 309 311 312 312 313 313 314 314 312 309 306 305 306 309 312 314 314 313 312 313 314 316 317 319 321 324 326 326 326 324 321 316 311 307 303 299 296 293 289 286 283 281 279 277 275 274 273 273 272 272 272 272 272 272 272 272 273 273 273 273 273 273 272
298 298 298 297 297 297 297 296 296 295 295 295 295 295 296 297 299 301 304 306 307 306 307 308 309 310 311 312 314 316 316 314 310 307 306 308 311 313 315 315 314 314 315 316 317 319 321 323 324 325 325 326 325 324 320 316 312 309 306 304 301 298 295 291 288 285 283 281 279 277 276 275 274 274 273 273 273 273 273 274 274 274 274 274 273 273
298 298 298 298 298 297 297 296 295 295 295 295 296 297 298 300 302 303 305 306 306 306 307 309 310 310 311 313 316 318 317 314 310 308 307 310 312 314 316 316 317 317 317 317 318 319 321 323 324 324 324 325 326 326 324 322 319 316 314 311 309 306 303 300 297 294 291 289 286 284 283 281 280 279 278 277 276 276 276 276 276 276 276 276 275 275
299 299 299 298 298 297 297 296 296 295 296 297 298 300 301 303 304 305 306 306 307 307 308 310 311 312 313 314 316 318 318 315 311 309 310 312 314 316 317 318 319 319 319 318 318 318 320 323 324 324 324 325 326 327 326 324 321 318 316 313 311 308 306 303 300 298 296 294 293 291 289 288 287 285 284 283 282 281 280 279 279 279 278 278 278 278
301 301 300 300 299 298 298 298 297 298 299 300 301 302 303 304 304 305 306 307 308 309 310 311 312 313 314 315 317 318 319 316 313 311 312 314 316 317 318 319 320 320 320 320 319 318 319 322 324 325 324 324 325 325 324 323 320 317 314 311 308 305 302 300 298 297 296 296 295 294 293 293 292 291 289 288 287 286 285 284 283 282 281 281 281 281
301 301 301 300 300 299 299 299 300 300 301 302 302 302 303 303 303 304 306 307 308 310 311 312 313 314 315 316 317 319 321 318 315 314 315 316 317 318 319 320 321 321 322 321 321 320 320 321 323 324 323 323 323 323 323 322 320 318 314 310 307 303 300 298 297 296 295 295 294 294 294 293 293 292 292 291 290 290 289 288 286 285 285 284 284 284
301 300 300 299 299 299 300 300 300 301 301 301 301 301 301 302 303 305 307 308 309 310 311 313 313 314 315 316 318 320 322 321 318 316 317 317 318 318 319 320 321 322 322 322 322 321 321 321 322 322 322 323 324 324 324 323 322 320 317 313 309 306 304 302 300 299 297 297 296 295 294 294 293 292 292 292 291 291 290 290 289 288 287 287 287 287
302 301 299 299 298 298 299 299 299 299 300 300 300 300 302 303 305 307 308 309 310 311 312 312 313 314 315 316 318 321 323 322 320 318 318 318 318 319 320 321 322 322 322 322 321 321 321 321 322 322 322 324 325 326 326 325 324 322 320 317 314 311 309 307 306 305 303 302 300 299 297 296 294 293 293 292 292 291 291 290 290 289 289 289 289 289
303 301 300 299 298 298 298 299 299 299 300 300 301 302 303 305 307 308 309 309 310 311 312 312 313 314 315 316 319 322 324 323 321 319 318 318 318 319 320 321 321 322 322 321 321 321 321 322 323 323 324 325 326 328 328 327 326 325 323 320 318 316 314 313 311 310 308 307 305 303 301 299 297 296 295 293 292 292 291 290 290 290 289 289 289 289
305 303 302 301 300 300 300 300 301 302 302 303 304 305 306 307 307 308 309 310 311 312 312 313 313 314 316 318 320 323 324 323 321 319 318 318 318 318 319 320 321 321 321 321 321 322 322 323 324 325 325 325 327 329 329 329 328 326 325 322 321 319 318 316 315 313 311 310 308 306 304 302 300 298 297 295 294 293 292 291 290 290 289 289 289 289
308 306 305 304 304 304 304 304 304 305 305 305 306 306 307 308 308 309 310 311 312 313 313 313 314 315 317 319 321 323 323 322 320 318 317 316 316 316 317 318 319 320 321 321 321 322 322 323 324 325 325 326 327 328 329 329 328 327 325 323 322 320 319 318 316 315 313 311 309 307 305 303 302 300 298 297 295 294 293 292 291 290 290 289 288 288
310 309 308 307 307 307 307 307 307 307 307 307 307 308 308 309 310 311 312 312 313 313 313 313 315 316 318 320 321 322 322 321 319 317 315 314 314 314 315 316 318 319 320 321 321 322 322 323 324 324 325 325 326 327 328 328 328 326 325 323 322 321 320 318 317 315 313 311 310 308 306 305 303 301 300 298 297 295 294 294 293 291 290 289 288 288
313 313 312 311 311 311 311 311 310 309 308 308 308 309 309 310 311 312 313 313 313 312 313 313 315 317 319 320 320 320 319 318 316 315 313 312 312 312 313 314 316 318 319 320 321 322 322 323 323 323 324 324 325 325 327 327 327 326 324 323 322 321 320 318 317 315 313 311 310 309 308 306 304 303 301 300 298 297 296 295 294 293 291 290 289 288
317 316 315 315 314 314 313 312 311 310 310 309 310 310 312 312 314 314 314 313 313 312 312 313 315 316 318 318 318 317 316 314 313 312 310 310 310 310 312 314 315 317 318 319 320 321 321 321 322 322 322 323 323 324 325 326 326 325 323 322 321 320 320 318 316 315 313 311 310 309 308 307 305 304 302 301 300 299 298 297 295 293 292 290 289 288
320 319 318 317 317 316 315 313 312 311 311 311 312 313 314 314 315 314 314 313 312 312 312 313 315 316 317 316 316 314 313 311 310 309 308 308 308 310 311 313 315 316 318 318 319 319 319 320 320 321 321 321 322 323 324 326 326 325 323 322 321 320 319 318 316 314 312 311 310 309 308 307 305 304 303 303 302 301 300 299 297 295 293 291 290 288
322 321 320 319 318 317 316 315 314 314 314 314 315 315 315 315 315 314 313 312 311 311 312 313 314 315 315 315 314 312 310 309 308 307 307 307 308 310 311 313 315 316 317 318 318 318 318 319 319 320 320 320 321 321 323 325 325 325 323 322 321 320 319 318 316 314 312 311 310 309 309 307 306 306 305 304 304 303 302 300 298 297 294 292 291 289
324 322 321 320 318 317 317 317 316 317 317 317 318 317 316 315 315 314 313 312 311 311 312 312 313 313 313 313 312 310 309 307 307 306 307 307 309 310 312 314 315 316 317 317 318 318 318 318 319 319 320 319 319 320 322 323 324 324 323 321 320 319 318 318 317 315 314 312 312 311 310 309 308 307 306 306 305 305 303 302 300 298 296 294 292 290
325 323 322 320 319 319 319 319 320 320 320 320 320 318 317 315 315 314 313 313 313 312 312 313 313 314 314 313 312 310 309 308 308 308 308 309 310 311 313 314 316 317 318 318 318 318 319 319 319 319 319 319 319 320 321 322 323 323 322 321 320 319 319 318 318 317 315 314 313 312 311 310 309 308 308 307 306 305 304 302 301 299 297 295 293 291
325 323 322 321 321 322 322 323 323 323 323 322 321 319 317 316 316 316 316 315 315 315 315 315 316 316 316 315 314 313 311 311 310 310 311 312 312 313 315 316 317 318 319 319 319 319 319 319 319 319 318 318 318 319 320 321 322 322 321 321 320 319 319 319 319 317 316 315 314 313 312 311 310 309 309 308 308 306 305 303 302 300 297 295 292 290
325 324 324 324 325 326 327 327 326 325 324 322 321 320 319 319 318 318 318 318 319 318 318 318 318 318 318 319 319 318 317 316 315 315 315 315 315 316 318 319 319 320 320 320 319 319 319 319 319 319 318 318 318 319 320 320 320 321 321 320 320 319 319 319 319 318 317 316 315 315 314 313 312 311 310 310 309 308 307 305 303 301 298 295 292 289
327 328 328 329 329 329 329 328 327 325 324 323 322 321 321 321 321 321 321 321 322 322 322 323 322 322 323 323 323 323 323 323 322 321 319 319 319 320 320 321 321 321 321 320 320 320 319 319 319 318 318 318 318 319 320 320 320 320 320 320 320 319 319 319 319 319 318 317 317 316 316 315 314 313 313 312 311 310 309 308 307 305 302 298 294 290
331 332 332 332 331 330 329 328 327 326 325 325 324 324 324 323 323 324 324 325 325 326 326 327 327 327 327 328 328 328 328 328 328 327 325 323 322 322 323 323 323 322 321 320 319 319 319 319 319 318 318 319 319 319 319 319 320 320 321 321 321 320 320 320 320 320 319 319 319 318 318 317 317 316 316 315 314 313 313 312 310 308 306 302 297 292
333 333 332 331 330 329 328 328 327 326 326 326 326 326 326 326 326 326 327 327 328 329 329 330 330 330 331 331 331 331 331 331 331 330 329 328 326 325 325 324 323 322 321 319 319 318 318 318 319 319 319 319 319 319 319 319 320 321 321 322 322 321 321 321 321 321 321 321 321 321 321 321 320 320 319 318 317 316 316 316 314 313 310 306 301 296
332 332 331 330 329 328 327 327 327 327 327 328 328 328 328 327 327 327 328 329 329 330 331 331 332 332 333 333 333 333 333 333 333 332 331 330 329 328 327 326 324 322 320 319 318 318 318 318 319 320 321 321 320 320 320 320 321 322 323 323 323 323 323 323 323 324 323 323 323 324 323 323 323 323 322 321 320 320 320 319 319 318 315 311 306 300
330 329 328 327 327 326 326 326 326 326 327 328 329 329 328 328 327 327 328 329 330 330 331 332 332 333 333 334 334 334 334 334 334 334 333 332 331 330 329 327 325 323 321 319 318 318 318 318 319 321 323 323 322 322 322 322 323 324 324 325 325 325 324 325 325 325 325 325 326 326 326 326 326 326 325 324 323 323 323 323 324 324 322 317 311 306
327 326 325 325 325 325 325 325 325 326 326 327 327 327 327 327 327 327 327 328 329 330 331 331 332 333 333 334 334 334 335 335 335 335 334 333 332 331 330 328 326 324 322 321 320 320 320 320 321 323 324 326 325 324 324 325 326 326 326 326 326 326 325 325 326 326 326 327 327 328 328 328 329 329 328 327 326 326 327 328 330 331 329 323 317 312
Height
3056 3055 3054 3053 3052 3051 3050 3049 3047 3045 3043 3042 3041 3040 3038 3037 3036 3035 3033 3032 3030 3029 3028 3026 3025 3023 3021 3020 3018 3016 3015 3013 3011 3010 3008 3007 3005 3004 3002 3000 2999 2997 2996 2994 2993 2992 2991 2989 2988 2987 2986 2985 2984 2983 2982 2982 2981 2981 2980 2980 2979 2979 2978 2977 2976 2976 2975 2974 2974 2973 2972 2972 2971 2971 2970 2969 2969 2968 2967 2967 2966 2966 2966 2965 2965 2964
3053 3051 3051 3050 3049 3048 3046 3045 3043 3041 3040 3038 3037 3036 3035 3034 3033 3031 3030 3028 3026 3025 3024 3022 3021 3019 3017 3016 3014 3012 3011 3009 3007 3006 3004 3002 3001 2999 2998 2996 2994 2993 2991 2990 2989 2988 2986 2986 2985 2983 2982 2981 2981 2980 2979 2978 2978 2977 2976 2976 2976 2975 2974 2974 2973 2972 2971 2971 2970 2969 2969 2968 2967 2967 2966 2966 2965 2964 2964 2963 2962 2962 2961 2961 2960 2960
3049 3048 3046 3046 3045 3043 3042 3040 3039 3037 3036 3034 3033 3032 3031 3030 3029 3028 3026 3025 3023 3021 3020 3018 3017 3015 3013 3012 3010 3009 3007 3005 3003 3002 3000 2998 2997 2995 2993 2992 2990 2989 2987 2986 2985 2984 2983 2982 2981 2980 2979 2978 2977 2976 2976 2975 2974 2974 2973 2972 2972 2971 2970 2970 2969 2968 2968 2967 2966 2966 2965 2964 2964 2963 2962 2962 2961 2961 2960 2959 2959 2958 2958 2957 2956 2956
3045 3044 3042 3041 3041 3039 3038 3036 3034 3033 3032 3031 3029 3028 3027 3026 3025 3024 3022 3021 3019 3018 3016 3014 3013 3011 3009 3008 3006 3005 3003 3001 2999 2998 2996 2994 2992 2991 2989 2988 2986 2985 2984 2982 2981 2981 2979 2978 2977 2976 2976 2975 2974 2973 2972 2972 2971 2970 2969 2968 2968 2967 2966 2966 2965 2964 2963 2962 2962 2961 2961 2960 2959 2959 2958 2957 2957 2956 2956 2955 2955 2954 2954 2953 2953 2952
3041 3040 3038 3037 3036 3035 3034 3032 3031 3029 3028 3027 3026 3025 3023 3022 3021 3020 3018 3017 3016 3014 3012 3011 3009 3007 3005 3004 3002 3001 2999 2997 2995 2994 2992 2990 2988 2987 2985 2984 2983 2981 2980 2979 2978 2977 2976 2975 2974 2973 2972 2971 2971 2970 2969 2968 2967 2966 2966 2965 2964 2963 2962 2961 2960 2959 2959 2958 2957 2956 2956 2955 2955 2954 2953 2953 2952 2952 2951 2951 2951 2950 2949 2949 2949 2948
3037 3036 3035 3033 3032 3031 3030 3028 3027 3026 3024 3023 3022 3021 3020 3018 3017 3016 3014 3013 3012 3010 3008 3006 3005 3003 3001 3000 2998 2996 2995 2993 2991 2990 2988 2986 2985 2983 2982 2981 2979 2978 2977 2976 2975 2974 2973 2972 2971 2970 2969 2968 2967 2966 2966 2965 2964 2963 2962 2961 2960 2959 2958 2957 2956 2955 2954 2953 2953 2952 2951 2951 2950 2950 2949 2949 2948 2948 2947 2947 2946 2946 2945 2945 2945 2944
3033 3032 3031 3029 3028 3027 3026 3024 3023 3022 3021 3019 3018 3017 3016 3015 3013 3012 3011 3009 3008 3006 3005 3003 3001 3000 2998 2996 2994 2993 2991 2989 2987 2986 2984 2983 2981 2980 2978 2977 2976 2975 2974 2973 2972 2971 2970 2969 2968 2967 2966 2965 2964 2963 2962 2961 2961 2959 2958 2957 2956 2955 2954 2953 2952 2951 2950 2949 2948 2948 2947 2946 2946 2946 2945 2944 2944 2943 2943 2942 2942 2942 2941 2941 2940 2940
3029 3028 3027 3026 3024 3022 3021 3021 3019 3018 3017 3015 3014 3013 3012 3011 3010 3008 3007 3005 3004 3002 3001 2999 2998 2996 2994 2993 2991 2989 2987 2986 2984 2982 2981 2979 2978 2976 2975 2974 2973 2972 2971 2970 2969 2968 2967 2966 2965 2964 2963 2962 2961 2960 2959 2958 2957 2956 2955 2953 2952 2951 2950 2949 2948 2947 2946 2945 2944 2944 2943 2942 2942 2941 2941 2941 2940 2939 2939 2938 2938 2937 2937 2937 2936 2936
3025 3024 3023 3022 3021 3019 3018 3016 3016 3015 3013 3011 3010 3009 3008 3007 3006 3005 3003 3002 3000 2999 2997 2996 2994 2993 2991 2990 2988 2986 2984 2982 2981 2979 2978 2976 2975 2974 2973 2972 2971 2970 2969 2968 2967 2966 2965 2963 2962 2961 2960 2959 2958 2957 2956 2955 2954 2952 2951 2950 2949 2948 2946 2945 2944 2943 2942 2941 2941 2940 2939 2939 2938 2937 2937 2936 2936 2935 2935 2934 2933 2933 2933 2932 2932 2932
3021 3020 3019 3017 3016 3016 3015 3013 3012 3011 3010 3008 3006 3005 3004 3003 3001 3000 3000 2998 2997 2995 2994 2992 2991 2990 2988 2986 2984 2983 2981 2979 2977 2976 2975 2973 2972 2971 2970 2969 2968 2967 2966 2965 2964 2963 2962 2961 2960 2958 2957 2956 2955 2954 2953 2952 2951 2949 2948 2947 2946 2944 2943 2942 2941 2940 2939 2938 2937 2936 2936 2935 2934 2934 2933 2932 2932 2931 2930 2930 2929 2929 2928 2928 2928 2928
3017 3016 3015 3014 3013 3012 3011 3010 3008 3007 3006 3004 3002 3001 3000 2999 2998 2996 2995 2994 2993 2992 2991 2989 2988 2987 2985 2983 2981 2979 2978 2976 2974 2973 2972 2971 2969 2968 2967 2966 2965 2964 2963 2962 2961 2960 2959 2958 2957 2956 2955 2954 2952 2951 2950 2949 2948 2946 2945 2944 2942 2941 2940 2938 2937 2936 2935 2935 2934 2933 2932 2931 2931 2930 2929 2929 2928 2927 2926 2926 2925 2925 2924 2924 2924 2924
3014 3012 3011 3010 3009 3008 3007 3006 3005 3003 3002 3001 2999 2997 2996 2995 2994 2993 2991 2990 2989 2988 2987 2986 2984 2983 2982 2980 2977 2976 2974 2973 2972 2971 2969 2968 2967 2966 2965 2964 2963 2962 2961 2960 2959 2958 2957 2956 2954 2953 2952 2951 2950 2949 2947 2946 2945 2943 2942 2940 2939 2937 2936 2935 2934 2933 2932 2931 2930 2930 2929 2928 2927 2926 2926 2925 2924 2923 2922 2922 2921 2921 2920 2920 2920 2920
3010 3009 3008 3007 3006 3005 3004 3003 3001 3000 2998 2997 2996 2994 2992 2991 2990 2989 2987 2986 2985 2984 2983 2982 2980 2979 2978 2976 2974 2972 2971 2970 2969 2968 2967 2966 2965 2964 2963 2961 2961 2960 2959 2958 2956 2956 2955 2954 2952 2951 2950 2949 2947 2946 2944 2943 2941 2940 2938 2937 2936 2934 2933 2932 2931 2930 2929 2928 2927 2926 2925 2924 2924 2923 2922 2921 2920 2919 2919 2918 2917 2917 2916 2916 2916 2916
3007 3006 3005 3004 3003 3002 3001 2999 2998 2996 2994 2993 2992 2990 2989 2987 2986 2985 2984 2982 2981 2980 2979 2977 2976 2975 2974 2973 2971 2969 2968 2967 2966 2965 2965 2964 2963 2962 2961 2959 2958 2957 2957 2956 2954 2953 2952 2951 2950 2948 2947 2946 2945 2943 2941 2940 2938 2936 2935 2933 2932 2931 2929 2928 2927 2926 2925 2924 2923 2922 2922 2921 2920 2919 2918 2917 2917 2916 2915 2914 2914 2913 2912 2912 2912 2912
3004 3002 3001 3001 3000 2998 2997 2996 2994 2992 2991 2989 2988 2986 2985 2984 2982 2981 2980 2978 2976 2975 2974 2973 2972 2971 2971 2970 2968 2966 2965 2963 2963 2963 2962 2962 2961 2960 2958 2957 2955 2954 2954 2953 2951 2950 2949 2948 2946 2945 2944 2943 2941 2940 2938 2936 2935 2933 2931 2930 2928 2927 2926 2925 2924 2923 2922 2921 2920 2919 2918 2917 2916 2916 2915 2914 2913 2912 2911 2911 2910 2910 2909 2909 2908 2908
3000 2999 2998 2997 2996 2995 2993 2992 2990 2989 2987 2986 2984 2983 2981 2980 2978 2977 2976 2974 2972 2971 2970 2969 2968 2968 2967 2966 2965 2964 2962 2960 2959 2959 2960 2959 2958 2956 2956 2954 2952 2951 2951 2950 2948 2946 2945 2944 2943 2942 2941 2939 2938 2936 2935 2933 2931 2929 2928 2926 2925 2923 2922 2921 2920 2919 2918 2917 2916 2915 2914 2913 2912 2911 2911 2910 2909 2909 2908 2907 2906 2906 2906 2905 2905 2905
2997 2996 2995 2994 2992 2991 2989 2988 2987 2985 2983 2982 2980 2979 2978 2976 2975 2973 2971 2970 2969 2967 2966 2965 2965 2964 2964 2963 2962 2961 2960 2958 2956 2955 2956 2956 2955 2953 2952 2951 2949 2947 2947 2946 2945 2943 2942 2941 2939 2938 2937 2936 2934 2933 2931 2929 2927 2926 2924 2922 2921 2920 2918 2917 2916 2915 2914 2913 2912 2911 2910 2909 2908 2908 2907 2906 2905 2905 2904 2903 2903 2902 2902 2901 2901 2901
2994 2993 2991 2990 2989 2987 2986 2985 2983 2981 2980 2978 2976 2975 2973 2972 2971 2969 2967 2966 2965 2964 2963 2962 2961 2961 2961 2961 2959 2958 2957 2956 2954 2952 2952 2952 2951 2950 2948 2946 2945 2944 2943 2942 2941 2940 2938 2937 2936 2935 2934 2932 2931 2929 2928 2926 2924 2922 2921 2919 2917 2916 2915 2913 2912 2911 2910 2909 2908 2907 2906 2906 2905 2904 2903 2902 2901 2901 2900 2900 2899 2898 2898 2897 2897 2897
2990 2989 2988 2987 2985 2983 2982 2981 2980 2978 2976 2974 2973 2971 2970 2968 2967 2966 2964 2963 2962 2961 2960 2959 2958 2958 2958 2958 2956 2955 2953 2952 2951 2949 2948 2948 2947 2946 2944 2943 2941 2941 2940 2939 2938 2936 2935 2934 2933 2932 2931 2929 2927 2926 2924 2923 2921 2919 2918 2916 2914 2913 2911 2910 2909 2907 2906 2906 2905 2904 2903 2902 2901 2900 2899 2898 2897 2897 2896 2896 2895 2895 2894 2894 2893 2893
2986 2985 2984 2983 2981 2980 2978 2977 2976 2974 2972 2970 2969 2968 2966 2965 2963 2962 2961 2960 2959 2958 2957 2957 2956 2956 2956 2955 2954 2952 2950 2949 2947 2945 2944 2944 2943 2942 2941 2940 2938 2937 2937 2936 2935 2933 2932 2931 2930 2929 2928 2926 2925 2923 2921 2919 2917 2916 2914 2913 2911 2910 2908 2907 2906 2904 2903 2902 2901 2900 2899 2898 2897 2896 2896 2895 2894 2893 2892 2892 2891 2891 2890 2890 2890 2889
2983 2982 2980 2979 2978 2976 2974 2973 2972 2970 2968 2966 2965 2964 2962 2961 2960 2959 2958 2957 2957 2956 2955 2955 2954 2953 2953 2952 2951 2949 2947 2946 2944 2941 2940 2940 2940 2939 2938 2937 2935 2934 2933 2933 2932 2931 2929 2928 2927 2926 2925 2923 2921 2919 2917 2916 2914 2912 2911 2909 2908 2906 2905 2904 2902 2901 2900 2899 2898 2897 2896 2895 2894 2893 2892 2891 2890 2889 2889 2888 2887 2887 2886 2886 2886 2886
2979 2978 2976 2975 2974 2972 2971 2969 2968 2966 2965 2963 2962 2960 2959 2958 2957 2956 2955 2955 2954 2953 2952 2952 2951 2951 2950 2949 2947 2946 2944 2943 2941 2938 2936 2936 2936 2936 2936 2934 2932 2931 2930 2930 2929 2928 2926 2926 2925 2923 2922 2920 2918 2916 2914 2912 2910 2908 2907 2906 2904 2903 2901 2900 2899 2898 2897 2896 2895 2894 2893 2892 2891 2890 2889 2888 2887 2886 2885 2885 2884 2883 2883 2882 2882 2881
2976 2974 2973 2971 2970 2968 2967 2966 2964 2963 2961 2960 2959 2957 2956 2955 2955 2954 2953 2952 2952 2951 2950 2949 2949 2948 2947 2946 2945 2943 2942 2941 2938 2936 2934 2932 2932 2933 2933 2931 2930 2928 2927 2926 2925 2924 2923 2923 2922 2921 2919 2917 2915 2913 2910 2908 2906 2905 2903 2901 2900 2899 2898 2897 2896 2894 2893 2892 2891 2891 2889 2888 2887 2886 2885 2884 2883 2882 2881 2881 2880 2880 2879 2879 2878 2877
2972 2971 2969 2968 2966 2965 2964 2963 2961 2960 2958 2957 2956 2954 2953 2953 2952 2951 2951 2950 2949 2948 2947 2946 2946 2945 2945 2944 2943 2941 2940 2938 2936 2934 2931 2930 2930 2930 2930 2929 2926 2925 2924 2923 2922 2921 2920 2920 2919 2918 2916 2914 2912 2910 2907 2905 2903 2901 2900 2898 2897 2896 2894 2893 2892 2891 2890 2889 2888 2887 2886 2885 2884 2883 2882 2881 2880 2879 2878 2877 2876 2876 2875 2875 2874 2874
2969 2968 2966 2965 2964 2962 2961 2960 2958 2957 2956 2955 2954 2953 2951 2951 2950 2949 2948 2948 2947 2946 2944 2943 2943 2942 2942 2942 2941 2940 2939 2937 2934 2931 2929 2927 2927 2928 2928 2926 2924 2921 2921 2920 2919 2918 2917 2916 2916 2915 2913 2911 2909 2907 2905 2902 2900 2898 2896 2895 2894 2892 2891 2890 2889 2888 2887 2886 2885 2884 2883 2882 2881 2880 2879 2877 2876 2876 2875 2874 2873 2872 2871 2871 2870 2869
2966 2965 2963 2962 2961 2959 2958 2957 2956 2954 2953 2952 2951 2950 2949 2948 2948 2947 2946 2946 2945 2943 2942 2941 2941 2941 2940 2940 2939 2938 2937 2935 2932 2929 2927 2926 2925 2925 2925 2923 2921 2919 2917 2917 2916 2915 2914 2913 2912 2912 2910 2909 2907 2905 2903 2900 2898 2896 2894 2893 2891 2890 2888 2887 2886 2885 2884 2883 2882 2881 2880 2878 2877 2876 2875 2874 2873 2872 2871 2870 2869 2868 2867 2866 2866 2865
2963 2961 2960 2959 2957 2956 2955 2954 2953 2951 2951 2950 2949 2948 2947 2947 2946 2945 2945 2944 2943 2942 2941 2940 2939 2939 2938 2938 2937 2936 2935 2932 2930 2927 2925 2924 2923 2923 2922 2921 2919 2916 2915 2914 2913 2912 2911 2910 2910 2909 2908 2906 2905 2903 2901 2899 2896 2894 2892 2891 2889 2888 2886 2885 2884 2882 2881 2880 2879 2878 2876 2875 2874 2873 2872 2871 2870 2869 2867 2866 2865 2864 2863 2862 2861 2860
2960 2958 2957 2956 2955 2953 2952 2951 2950 2949 2949 2948 2947 2946 2946 2945 2944 2943 2942 2942 2941 2940 2939 2938 2937 2936 2936 2935 2935 2934 2933 2931 2928 2925 2923 2922 2921 2920 2919 2918 2916 2914 2911 2910 2910 2910 2909 2908 2907 2906 2905 2904 2902 2901 2899 2897 2895 2893 2891 2890 2888 2886 2884 2883 2881 2880 2879 2877 2876 2875 2874 2872 2871 2870 2869 2868 2866 2866 2864 2863 2862 2861 2860 2858 2857 2856
2956 2955 2954 2952 2951 2951 2950 2949 2948 2947 2946 2946 2945 2944 2943 2943 2942 2941 2940 2940 2939 2938 2937 2936 2936 2934 2933 2933 2933 2933 2931 2929 2926 2923 2921 2920 2919 2918 2917 2915 2913 2911 2909 2907 2906 2906 2906 2906 2905 2903 2902 2901 2900 2898 2896 2895 2893 2891 2890 2888 2887 2885 2883 2881 2880 2878 2877 2875 2874 2872 2871 2870 2868 2867 2866 2865 2864 2862 2861 2860 2859 2858 2856 2855 2854 2852
2953 2951 2950 2949 2948 2948 2947 2946 2946 2945 2945 2944 2943 2942 2942 2941 2940 2940 2939 2938 2937 2936 2936 2935 2934 2932 2931 2931 2931 2931 2930 2928 2924 2921 2919 2918 2917 2916 2914 2913 2911 2909 2907 2905 2903 2902 2903 2903 2903 2901 2899 2898 2897 2896 2894 2892 2891 2890 2888 2887 2885 2884 2882 2880 2878 2876 2875 2873 2872 2870 2869 2867 2866 2864 2863 2862 2861 2859 2858 2857 2856 2855 2853 2851 2850 2849
2950 2949 2948 2947 2946 2945 2945 2944 2944 2943 2943 2942 2942 2941 2940 2940 2939 2938 2937 2936 2935 2934 2933 2933 2932 2931 2930 2929 2928 2928 2928 2926 2923 2920 2917 2916 2915 2913 2912 2911 2909 2907 2906 2903 2901 2899 2898 2899 2900 2899 2897 2896 2894 2893 2892 2890 2889 2887 2886 2885 2883 2882 2880 2878 2876 2875 2873 2872 2870 2869 2867 2865 2863 2862 2861 2859 2858 2856 2856 2854 2853 2851 2850 2848 2847 2846
2948 2947 2946 2945 2944 2944 2943 2942 2942 2942 2941 2941 2940 2940 2939 2938 2937 2936 2936 2935 2934 2933 2932 2931 2930 2929 2928 2927 2927 2926 2925 2923 2921 2918 2916 2914 2912 2911 2910 2908 2907 2905 2904 2902 2900 2897 2895 2895 2896 2896 2895 2894 2892 2891 2889 2887 2886 2884 2883 2882 2881 2879 2878 2876 2874 2873 2871 2870 2868 2867 2865 2863 2861 2860 2858 2857 2855 2854 2853 2851 2850 2849 2847 2846 2844 2843
2946 2945 2944 2944 2943 2942 2942 2941 2941 2941 2940 2940 2939 2938 2937 2936 2936 2935 2934 2933 2932 2931 2930 2929 2929 2928 2927 2926 2926 2924 2923 2921 2919 2916 2914 2912 2910 2909 2907 2906 2905 2903 2901 2900 2898 2896 2894 2892 2891 2891 2891 2891 2889 2888 2886 2885 2883 2881 2880 2879 2878 2876 2875 2874 2872 2870 2869 2867 2866 2864 2863 2861 2859 2857 2856 2854 2853 2851 2850 2849 2847 2846 2844 2843 2841 2840
2944 2944 2943 2942 2942 2941 2941 2941 2940 2939 2939 2938 2937 2937 2936 2935 2934 2933 2932 2931 2931 2930 2929 2928 2927 2926 2926 2925 2924 2923 2921 2920 2917 2915 2912 2910 2908 2906 2905 2904 2902 2901 2899 2898 2896 2894 2892 2891 2889 2888 2887 2887 2886 2885 2884 2882 2880 2879 2877 2876 2875 2873 2872 2871 2869 2867 2866 2865 2863 2862 2860 2859 2857 2856 2854 2852 2851 2849 2848 2846 2845 2844 2842 2841 2839 2838
2943 2942 2942 2941 2941 2941 2940 2939 2939 2938 2937 2937 2936 2935 2935 2934 2933 2932 2931 2930 2929 2928 2927 2926 2926 2925 2924 2923 2922 2921 2920 2918 2916 2913 2911 2909 2907 2905 2903 2902 2901 2899 2897 2895 2894 2892 2890 2888 2887 2886 2884 2883 2882 2882 2881 2880 2878 2876 2875 2873 2872 2870 2869 2867 2866 2864 2863 2862 2860 2859 2857 2856 2854 2853 2851 2850 2848 2847 2845 2844 2843 2841 2840 2838 2837 2835
2941 2941 2941 2940 2940 2939 2939 2938 2937 2937 2936 2936 2935 2934 2933 2933 2932 2931 2930 2929 2928 2927 2926 2925 2925 2923 2922 2921 2920 2919 2918 2917 2915 2913 2910 2908 2906 2904 2902 2901 2899 2897 2895 2893 2891 2889 2887 2886 2884 2883 2881 2880 2879 2878 2878 2877 2876 2874 2872 2871 2870 2868 2866 2865 2863 2861 2860 2859 2857 2856 2855 2853 2851 2850 2849 2847 2846 2844 2843 2842 2840 2839 2837 2836 2834 2833
2941 2940 2940 2939 2939 2938 2938 2937 2936 2936 2935 2934 2934 2933 2932 2931 2931 2930 2929 2928 2927 2926 2925 2924 2923 2922 2921 2919 2918 2917 2916 2915 2913 2911 2909 2907 2905 2903 2901 2899 2898 2896 2894 2891 2889 2887 2885 2883 2881 2880 2879 2877 2876 2875 2874 2874 2873 2872 2871 2869 2867 2866 2864 2862 2860 2858 2857 2856 2854 2853 2851 2850 2849 2847 2846 2844 2843 2842 2841 2839 2838 2836 2835 2834 2832 2831
2940 2939 2939 2938 2938 2937 2936 2936 2936 2935 2934 2933 2933 2932 2931 2930 2930 2929 2928 2927 2926 2925 2924 2923 2922 2921 2919 2918 2916 2915 2914 2912 2911 2910 2908 2906 2904 2902 2900 2898 2896 2895 2893 2890 2888 2885 2883 2881 2879 2877 2876 2875 2874 2873 2872 2871 2870 2868 2867 2866 2866 2864 2862 2860 2858 2856 2854 2852 2851 2850 2848 2847 2845 2844 2842 2841 2840 2839 2837 2836 2835 2834 2832 2831 2830 2828
2939 2938 2938 2937 2936 2936 2936 2935 2935 2934 2933 2932 2932 2931 2930 2929 2928 2927 2926 2926 2925 2924 2923 2922 2921 2920 2918 2917 2915 2914 2912 2911 2910 2908 2907 2905 2903 2901 2898 2896 2894 2893 2891 2889 2887 2884 2882 2880 2877 2875 2873 2871 2871 2870 2869 2869 2867 2866 2864 2863 2862 2862 2861 2858 2856 2854 2851 2850 2848 2846 2845 2844 2842 2840 2839 2838 2836 2835 2834 2833 2832 2831 2830 2828 2827 2826
2938 2937 2937 2936 2936 2935 2935 2934 2934 2933 2932 2931 2931 2930 2929 2928 2927 2926 2926 2925 2924 2923 2922 2921 2920 2918 2917 2916 2914 2912 2911 2909 2908 2907 2905 2903 2901 2899 2897 2895 2893 2891 2889 2887 2886 2883 2881 2878 2876 2874 2872 2870 2868 2866 2866 2866 2865 2863 2861 2860 2859 2858 2858 2856 2854 2852 2849 2847 2846 2844 2842 2841 2839 2837 2836 2835 2833 2832 2831 2830 2829 2828 2827 2825 2824 2823
2937 2936 2936 2935 2935 2934 2934 2933 2933 2932 2931 2930 2929 2928 2928 2927 2926 2926 2925 2924 2923 2921 2920 2919 2918 2917 2916 2914 2913 2911 2910 2908 2907 2905 2904 2902 2900 2897 2895 2893 2891 2889 2887 2885 2884 2882 2880 2877 2875 2872 2870 2868 2866 2864 2864 2863 2863 2861 2859 2857 2856 2855 2854 2854 2852 2850 2847 2845 2843 2841 2839 2837 2836 2834 2833 2831 2830 2829 2828 2826 2826 2825 2824 2822 2821 2820
2936 2936 2935 2935 2934 2934 2933 2932 2931 2931 2930 2929 2928 2927 2926 2926 2925 2925 2924 2923 2921 2920 2919 2918 2917 2916 2915 2913 2912 2910 2908 2906 2905 2904 2902 2900 2898 2896 2894 2891 2889 2887 2885 2883 2881 2880 2878 2876 2873 2871 2869 2866 2864 2862 2861 2861 2860 2859 2857 2855 2853 2851 2851 2851 2850 2847 2844 2842 2840 2838 2836 2834 2832 2831 2830 2828 2827 2826 2825 2823 2822 2821 2820 2819 2818 2817
2935 2935 2934 2934 2933 2933 2932 2931 2931 2930 2929 2928 2927 2926 2925 2925 2924 2923 2922 2921 2920 2919 2917 2916 2915 2914 2913 2912 2911 2909 2907 2906 2904 2902 2900 2898 2896 2894 2892 2890 2888 2886 2883 2881 2879 2877 2876 2874 2872 2870 2867 2865 2863 2861 2859 2858 2857 2857 2856 2854 2851 2849 2847 2846 2846 2844 2842 2840 2838 2836 2833 2831 2830 2828 2827 2826 2824 2823 2822 2821 2820 2819 2817 2816 2815 2814
2935 2934 2934 2933 2933 2932 2931 2930 2929 2928 2927 2927 2926 2925 2924 2923 2922 2921 2921 2919 2918 2917 2916 2914 2913 2912 2911 2910 2909 2908 2906 2905 2902 2900 2898 2896 2894 2892 2890 2888 2886 2884 2881 2879 2877 2875 2873 2871 2870 2868 2866 2863 2861 2859 2857 2856 2855 2854 2853 2851 2850 2847 2845 2843 2841 2840 2839 2837 2835 2833 2831 2829 2827 2825 2824 2823 2821 2820 2819 2818 2817 2816 2815 2814 2812 2811
2934 2934 2933 2932 2931 2931 2930 2929 2928 2927 2926 2926 2925 2924 2923 2922 2921 2920 2919 2917 2916 2915 2914 2913 2911 2910 2909 2908 2907 2906 2904 2903 2901 2899 2897 2895 2892 2890 2888 2886 2884 2882 2880 2878 2876 2873 2871 2869 2867 2866 2864 2862 2860 2858 2856 2854 2852 2851 2850 2849 2847 2845 2843 2841 2839 2837 2835 2833 2832 2830 2828 2826 2824 2822 2821 2820 2819 2817 2816 2815 2814 2813 2812 2811 2810 2809
2934 2933 2932 2931 2930 2930 2929 2928 2927 2926 2926 2925 2924 2923 2921 2921 2919 2918 2917 2916 2915 2913 2912 2911 2910 2908 2907 2906 2905 2903 2902 2901 2900 2898 2896 2893 2891 2888 2886 2884 2882 2880 2878 2876 2874 2872 2870 2868 2866 2863 2861 2859 2858 2856 2855 2853 2851 2849 2847 2846 2844 2842 2841 2839 2837 2835 2832 2830 2829 2827 2825 2823 2821 2820 2818 2817 2816 2815 2814 2813 2811 2810 2810 2809 2808 2807
2932 2932 2931 2930 2929 2929 2928 2927 2926 2926 2925 2924 2922 2921 2920 2919 2918 2917 2916 2914 2913 2912 2911 2909 2908 2906 2905 2904 2902 2901 2900 2899 2897 2896 2894 2892 2890 2887 2885 2882 2880 2878 2876 2874 2872 2870 2868 2866 2864 2862 2860 2857 2855 2854 2853 2851 2849 2847 2845 2843 2841 2840 2838 2836 2834 2832 2830 2828 2826 2824 2822 2820 2819 2817 2815 2814 2813 2812 2811 2810 2809 2808 2807 2806 2805 2804
2931 2931 2930 2929 2929 2928 2927 2926 2926 2925 2924 2922 2921 2920 2919 2918 2916 2915 2914 2913 2912 2910 2909 2908 2906 2905 2903 2902 2900 2899 2897 2896 2895 2893 2892 2890 2888 2886 2884 2881 2879 2877 2875 2873 2871 2869 2866 2865 2863 2861 2859 2856 2854 2852 2850 2849 2847 2845 2843 2841 2839 2836 2835 2833 2831 2829 2827 2825 2823 2821 2819 2818 2816 2814 2812 2811 2810 2809 2808 2807 2806 2806 2805 2803 2802 2802
2931 2930 2929 2929 2928 2927 2926 2926 2925 2924 2922 2921 2920 2919 2918 2917 2915 2914 2913 2911 2910 2909 2907 2906 2905 2903 2902 2900 2898 2897 2895 2894 2892 2891 2889 2887 2885 2883 2881 2879 2877 2875 2873 2871 2869 2867 2865 2864 2862 2860 2858 2856 2852 2850 2848 2846 2845 2843 2841 2838 2836 2834 2831 2830 2828 2826 2824 2822 2820 2819 2817 2815 2814 2812 2810 2809 2807 2806 2806 2805 2804 2803 2802 2801 2800 2799
2930 2929 2928 2928 2927 2926 2925 2925 2923 2922 2921 2920 2919 2918 2917 2916 2914 2913 2911 2910 2909 2907 2906 2904 2903 2901 2900 2898 2896 2895 2893 2891 2890 2888 2886 2885 2882 2881 2879 2876 2875 2872 2871 2869 2867 2865 2863 2862 2861 2859 2858 2855 2851 2848 2846 2844 2842 2840 2838 2836 2833 2831 2828 2826 2825 2823 2821 2820 2818 2816 2815 2813 2811 2810 2809 2807 2805 2804 2803 2803 2802 2801 2800 2799 2798 2797
2929 2928 2927 2927 2926 2925 2924 2923 2922 2921 2920 2919 2918 2917 2916 2914 2913 2911 2910 2909 2907 2906 2904 2902 2901 2899 2898 2896 2895 2893 2891 2890 2888 2886 2884 2882 2880 2878 2876 2874 2871 2869 2867 2865 2863 2861 2860 2858 2857 2857 2856 2855 2851 2847 2844 2841 2839 2837 2835 2833 2831 2829 2826 2824 2822 2821 2819 2817 2816 2814 2813 2811 2810 2808 2807 2805 2804 2802 2801 2801 2800 2799 2798 2797 2796 2795